{"data":{"norad_id":69989,"intl_designator":"2026-159Q","name":"STARLINK-38080","alt_names":[],"object_type":"PAYLOAD","status":"ACTIVE","operator":null,"country":"US","launch_date":"2026-07-11","launch_site_code":"AFWTR","launch_vehicle":null,"mission":null,"orbit_class":"UNKNOWN","rcs_meters":null,"size_class":null,"mass_kg":null,"dimensions":null,"purposes":["comms"],"wikipedia_slug":null,"has_3d_model":false,"image_url":null,"decayed_at":null,"tle_current":{"epoch":"2026-09-20T04:00:03.000096Z","epoch_age_seconds":46581,"freshness":"FRESH","line1":"1 69989U 26159Q   26263.16670139 -.00049369  00000+0 -13728-2 0  9991","line2":"2 69989  97.2843 104.9783 0001841 102.4823 310.0870 15.36990238  5990","mean_motion":15.36990238,"eccentricity":0.0001841,"inclination_deg":97.2843,"raan_deg":104.9783,"arg_perigee_deg":102.4823,"mean_anomaly_deg":310.087,"bstar":-0.0013728,"rev_number":599,"period_min":93.689599608244,"perigee_km":453.75733770024,"apogee_km":456.27330438485,"semimajor_km":6833.1523210425,"source":"CELESTRAK","updated_at":"2026-09-20T09:00:44.330720Z"}}}